FW5282 Weather Reports


Display with metric or nautical units.
time (UTC)temp
F
wind
direction
speed
MPH
gust
MPH
rain 1hr
in
rain 24hr
in
rain mn
in
humidity
%
barometer
mb
20260507073539 53 78 0.0 1.0 0.00 0.04 0.00 87 1013.8
20260507073034 53 29 0.0 1.0 0.00 0.04 0.00 87 1013.8
20260507072539 53 17 0.0 1.0 0.00 0.04 0.00 89 1013.7
20260507072036 52 52 0.0 1.0 0.00 0.04 0.00 90 1013.7
20260507071531 52 49 0.0 1.0 0.00 0.04 0.00 89 1013.7
20260507071027 52 48 0.0 1.0 0.00 0.04 0.00 89 1013.7
20260507070535 51 57 0.0 1.0 0.00 0.04 0.00 90 1013.8
20260507070043 50 9 0.0 1.0 0.00 0.12 0.00 92 1013.8
20260507065546 50 32 0.0 1.0 0.00 0.12 0.00 90 1013.8
20260507065039 50 30 0.0 1.0 0.00 0.12 0.00 90 1013.7
20260507064607 50 28 0.0 1.0 0.00 0.12 0.00 91 1013.5
20260507064027 50 26 0.0 1.0 0.00 0.12 0.00 92 1013.6
20260507063535 49 5 0.0 1.0 0.00 0.12 0.00 93 1013.6
20260507063037 49 35 0.0 1.0 0.00 0.12 0.00 93 1013.6
20260507062542 48 32 0.0 1.0 0.00 0.12 0.00 94 1013.5
20260507062044 48 13 0.0 1.0 0.00 0.12 0.00 94 1013.5
20260507061529 48 17 0.0 1.0 0.00 0.12 0.00 95 1013.4
20260507061035 48 5 0.0 1.0 0.00 0.12 0.00 97 1013.4
20260507060542 47 306 0.0 1.0 0.00 0.12 0.00 97 1013.4
20260507060031 47 305 0.0 1.0 0.00 0.16 0.00 97 1013.4
20260507055532 46 305 0.0 1.0 0.00 0.16 0.00 97 1013.4
20260507055039 45 305 0.0 1.0 0.00 0.16 0.00 97 1013.4
20260507054528 45 309 0.0 1.0 0.00 0.16 0.00 97 1013.3
20260507054043 44 309 0.0 1.0 0.00 0.16 0.00 97 1013.2
20260507053530 44 312 0.0 1.0 0.00 0.16 0.00 97 1013.1
20260507053044 43 311 0.0 1.0 0.00 0.16 0.00 96 1013.1
20260507052536 43 307 0.0 0.0 0.00 0.16 0.00 97 1013.1
20260507052028 43 307 0.0 0.0 0.00 0.16 0.00 96 1013.0
20260507051558 42 307 0.0 0.0 0.00 0.16 0.00 96 1013.0
20260507051032 42 307 0.0 1.0 0.00 0.16 0.00 96 1013.0
20260507050541 42 307 0.0 2.0 0.00 0.16 0.00 96 1013.0
20260507050028 42 305 1.0 2.0 0.00 0.16 0.00 96 1013.0
20260507045535 42 302 0.0 0.0 0.00 0.16 0.00 96 1013.0
20260507045028 41 302 0.0 1.0 0.00 0.16 0.00 96 1012.9
20260507044533 41 302 0.0 1.0 0.00 0.16 0.00 96 1012.8
20260507044058 41 302 0.0 1.0 0.00 0.16 0.00 96 1012.8
20260507043527 41 302 0.0 1.0 0.00 0.16 0.00 96 1012.8
20260507043043 41 303 0.0 1.0 0.00 0.16 0.00 96 1012.7
20260507042531 41 303 0.0 1.0 0.00 0.16 0.00 96 1012.7
20260507042057 42 304 0.0 1.0 0.00 0.16 0.00 96 1012.7
20260507041545 42 304 0.0 1.0 0.00 0.16 0.00 96 1012.6
20260507041027 42 306 0.0 2.0 0.00 0.16 0.00 96 1012.6
20260507040534 42 306 0.0 2.0 0.00 0.16 0.00 96 1012.7
20260507040026 42 313 0.0 1.0 0.00 0.20 0.00 96 1012.6
20260507035550 42 313 0.0 2.0 0.00 0.20 0.00 96 1012.7
20260507035036 42 313 0.0 1.0 0.00 0.20 0.00 96 1012.6
20260507034542 42 313 0.0 2.0 0.00 0.20 0.00 96 1012.6
20260507034032 42 313 0.0 2.0 0.00 0.20 0.00 96 1012.6
20260507033540 42 314 1.0 2.0 0.00 0.20 0.00 96 1012.6
20260507033047 42 314 0.0 2.0 0.00 0.20 0.00 96 1012.6
20260507032529 42 314 1.0 2.0 0.00 0.20 0.00 96 1012.5
20260507032032 42 315 0.0 2.0 0.00 0.20 0.00 96 1012.5
20260507031534 42 313 1.0 2.0 0.00 0.20 0.00 95 1012.6
20260507031032 42 313 1.0 2.0 0.00 0.20 0.00 95 1012.5
20260507030536 42 311 1.0 2.0 0.00 0.20 0.00 95 1012.5
20260507030044 42 303 1.0 2.0 0.00 0.28 0.00 96 1012.6
20260507025535 42 306 1.0 2.0 0.00 0.28 0.00 95 1012.5
20260507025027 42 300 0.0 2.0 0.00 0.28 0.00 95 1012.6
20260507024535 42 298 0.0 2.0 0.00 0.28 0.00 96 1012.5
20260507024036 42 298 0.0 2.0 0.00 0.28 0.00 95 1012.5
20260507023540 42 302 0.0 2.0 0.00 0.28 0.00 95 1012.5
20260507023039 42 297 1.0 2.0 0.00 0.28 0.00 95 1012.5
20260507022544 42 294 1.0 2.0 0.00 0.28 0.00 95 1012.5
20260507022045 42 306 1.0 2.0 0.00 0.28 0.00 95 1012.5
20260507021535 43 306 1.0 2.0 0.00 0.28 0.00 95 1012.5
20260507021028 42 303 1.0 2.0 0.00 0.28 0.00 95 1012.4
20260507020542 43 303 1.0 2.0 0.00 0.28 0.00 95 1012.3
20260507020033 43 298 1.0 2.0 0.00 0.31 0.00 95 1012.4
20260507015602 43 303 1.0 2.0 0.00 0.31 0.00 95 1012.3
20260507015034 43 304 1.0 1.0 0.00 0.31 0.00 95 1012.4
20260507014537 43 304 0.0 1.0 0.00 0.31 0.00 95 1012.3
20260507014041 43 304 0.0 1.0 0.00 0.31 0.00 95 1012.3
20260507013543 43 304 0.0 1.0 0.00 0.31 0.00 95 1012.3
20260507013043 43 304 0.0 1.0 0.00 0.31 0.00 95 1012.2
20260507012529 43 304 0.0 2.0 0.00 0.31 0.00 95 1012.2
20260507012058 43 308 1.0 2.0 0.00 0.31 0.00 95 1012.2
20260507011546 43 302 0.0 1.0 0.00 0.31 0.00 95 1012.3
20260507011028 43 300 0.0 1.0 0.00 0.31 0.00 95 1012.2
20260507010534 44 299 0.0 2.0 0.00 0.31 0.00 95 1012.1
20260507010039 44 299 1.0 2.0 0.00 0.35 0.00 95 1012.1
20260507005541 44 298 0.0 2.0 0.00 0.35 0.00 95 1012.0
20260507005042 44 298 0.0 3.0 0.00 0.35 0.00 95 1012.0
20260507004528 44 305 1.0 3.0 0.00 0.35 0.00 95 1012.0
20260507004029 44 294 1.0 3.0 0.00 0.35 0.00 95 1012.0
20260507003535 44 281 1.0 3.0 0.00 0.35 0.00 95 1012.0
20260507003034 44 302 0.0 2.0 0.00 0.35 0.00 95 1012.0
20260507002545 44 299 1.0 2.0 0.00 0.35 0.00 94 1012.1
20260507002031 44 306 0.0 2.0 0.00 0.35 0.00 95 1012.2
20260507001533 44 296 0.0 2.0 0.00 0.35 0.00 95 1012.2
20260507001035 44 293 1.0 2.0 0.00 0.35 0.00 94 1012.1
20260507000604 44 300 0.0 1.0 0.00 0.35 0.00 94 1012.1
20260506235538 44 290 0.0 2.0 0.00 0.35 0.07 94 1012.1
20260506235043 45 295 0.0 2.0 0.00 0.35 0.07 94 1012.1
20260506234528 45 298 0.0 1.0 0.00 0.35 0.07 94 1012.1
20260506234028 45 296 0.0 1.0 0.00 0.35 0.07 94 1012.0
20260506233555 45 295 0.0 1.0 0.00 0.35 0.07 94 1012.0
20260506233033 45 304 0.0 2.0 0.00 0.35 0.07 93 1012.0
20260506232542 45 304 1.0 3.0 0.00 0.35 0.07 93 1012.1
20260506232046 45 300 0.0 3.0 0.00 0.35 0.07 93 1012.0
20260506231528 46 325 0.0 1.0 0.00 0.35 0.07 93 1012.0
20260506231030 46 325 0.0 1.0 0.00 0.35 0.07 92 1011.9
20260506230531 46 344 0.0 1.0 0.00 0.35 0.07 92 1011.9
20260506230038 46 347 0.0 0.0 0.00 0.35 0.07 92 1011.8
20260506225543 47 347 0.0 0.0 0.00 0.35 0.07 92 1011.8
20260506225044 47 347 0.0 0.0 0.00 0.35 0.07 92 1011.8
20260506224558 47 347 0.0 0.0 0.00 0.35 0.07 92 1011.8
20260506224036 47 347 0.0 0.0 0.00 0.35 0.07 91 1011.8
20260506223545 47 347 0.0 1.0 0.00 0.35 0.07 91 1011.7
20260506223031 47 347 0.0 1.0 0.00 0.35 0.07 91 1011.8
20260506222541 47 347 0.0 0.0 0.00 0.35 0.07 91 1011.8
20260506222029 48 347 0.0 1.0 0.00 0.35 0.07 90 1011.7
20260506221536 48 347 0.0 1.0 0.00 0.35 0.07 90 1011.8
20260506221033 48 345 0.0 1.0 0.00 0.35 0.07 90 1011.7
20260506220544 48 333 0.0 1.0 0.00 0.35 0.07 89 1011.7
20260506220042 48 343 0.0 2.0 0.00 0.35 0.07 89 1011.7
20260506215533 49 340 0.0 3.0 0.00 0.35 0.07 89 1011.6
20260506215043 49 332 1.0 3.0 0.00 0.35 0.07 89 1011.6
20260506214546 49 333 1.0 2.0 0.00 0.35 0.07 88 1011.6
20260506214030 49 341 0.0 2.0 0.00 0.35 0.07 88 1011.6
20260506213536 49 327 1.0 3.0 0.00 0.35 0.07 88 1011.5
20260506213043 50 334 1.0 3.0 0.00 0.35 0.07 88 1011.4
20260506212544 50 338 1.0 5.0 0.00 0.35 0.07 88 1011.4
20260506212030 50 333 1.0 5.0 0.00 0.35 0.07 88 1011.3
20260506211531 50 330 1.0 5.0 0.00 0.35 0.07 88 1011.4
20260506211033 50 319 1.0 5.0 0.00 0.35 0.07 88 1011.3
20260506210544 50 344 2.0 5.0 0.00 0.35 0.07 88 1011.3
20260506210046 49 12 2.0 4.0 0.00 0.35 0.07 88 1011.3
20260506205536 50 342 2.0 4.0 0.00 0.35 0.07 87 1011.2
20260506205046 50 327 2.0 4.0 0.00 0.35 0.07 87 1011.2
20260506204558 50 327 1.0 4.0 0.00 0.35 0.07 87 1011.2
20260506204036 50 360 2.0 5.0 0.00 0.35 0.07 87 1011.1
20260506203538 50 332 2.0 5.0 0.00 0.35 0.07 87 1011.0
20260506203033 50 355 2.0 5.0 0.00 0.35 0.07 87 1010.9
20260506202532 50 350 2.0 4.0 0.00 0.35 0.07 87 1010.9
20260506202051 51 344 1.0 4.0 0.00 0.35 0.07 87 1010.8
20260506201537 51 355 1.0 3.0 0.00 0.35 0.07 87 1010.8
20260506201030 51 340 0.0 3.0 0.00 0.35 0.07 87 1010.8
20260506200604 51 334 1.0 3.0 0.00 0.35 0.07 86 1010.7
20260506200036 51 347 1.0 3.0 0.00 0.39 0.07 86 1010.6
20260506195542 51 342 1.0 3.0 0.00 0.39 0.07 86 1010.6
20260506195040 52 344 1.0 1.0 0.00 0.39 0.07 86 1010.5
20260506194540 52 346 0.0 1.0 0.00 0.39 0.07 86 1010.4
20260506194040 52 348 0.0 0.0 0.00 0.39 0.07 85 1010.4
20260506193543 53 351 0.0 0.0 0.00 0.39 0.07 85 1010.3
20260506193030 53 347 0.0 0.0 0.00 0.39 0.07 84 1010.2
20260506192529 53 346 0.0 1.0 0.00 0.39 0.07 83 1010.1
20260506192056 53 350 0.0 2.0 0.00 0.39 0.07 82 1010.1
20260506191538 54 345 0.0 2.0 0.00 0.39 0.07 81 1010.1
20260506191032 54 349 1.0 2.0 0.00 0.39 0.07 81 1010.0
20260506190540 54 347 1.0 3.0 0.00 0.39 0.07 81 1010.0
20260506190043 54 5 1.0 4.0 0.00 0.39 0.07 80 1009.9
20260506185527 55 328 1.0 4.0 0.00 0.39 0.07 80 1009.9
20260506185028 55 5 1.0 4.0 0.00 0.39 0.07 79 1009.8
20260506184540 55 344 1.0 6.0 0.00 0.39 0.07 79 1009.7
20260506184042 55 339 2.0 6.0 0.00 0.39 0.07 78 1009.7
20260506183533 56 320 2.0 4.0 0.00 0.39 0.07 78 1009.6
20260506183033 56 360 1.0 3.0 0.00 0.39 0.07 79 1009.6
20260506182537 56 355 1.0 3.0 0.00 0.39 0.07 79 1009.5
20260506182058 56 355 1.0 4.0 0.00 0.39 0.07 78 1009.4
20260506181554 56 350 2.0 4.0 0.00 0.39 0.07 78 1009.4
20260506181041 56 320 2.0 4.0 0.00 0.39 0.07 77 1009.3
20260506180536 56 355 0.0 4.0 0.00 0.39 0.07 78 1009.3
20260506180042 56 355 2.0 4.0 0.00 0.43 0.07 78 1009.2
20260506175528 56 348 1.0 4.0 0.00 0.43 0.07 78 1009.2
20260506175056 56 9 1.0 4.0 0.00 0.43 0.07 78 1009.1
20260506174542 56 355 1.0 3.0 0.00 0.43 0.07 78 1009.1
20260506174052 56 336 1.0 3.0 0.00 0.43 0.07 78 1009.0
20260506173539 57 323 1.0 2.0 0.00 0.43 0.07 78 1009.0
20260506173036 57 355 1.0 3.0 0.00 0.43 0.07 79 1009.0
20260506172554 57 331 1.0 6.0 0.00 0.43 0.07 79 1008.9
20260506172028 57 319 1.0 8.0 0.00 0.43 0.07 79 1008.9
20260506171040 58 280 3.0 6.0 0.00 0.43 0.07 78 1008.8
20260506170545 58 310 2.0 6.0 0.00 0.43 0.07 78 1008.8
20260506170046 58 300 1.0 7.0 0.00 0.43 0.07 77 1008.8
20260506165533 58 300 2.0 7.0 0.00 0.43 0.07 77 1008.7
20260506165031 58 311 2.0 5.0 0.00 0.43 0.07 77 1008.7
20260506164531 58 313 1.0 5.0 0.00 0.43 0.07 76 1008.7
20260506164033 58 299 1.0 4.0 0.00 0.43 0.07 77 1008.8
20260506163534 58 341 1.0 4.0 0.00 0.43 0.07 76 1008.8
20260506163037 58 305 2.0 4.0 0.00 0.43 0.07 75 1008.8
20260506162542 58 341 1.0 5.0 0.00 0.43 0.07 77 1008.8
20260506162044 58 344 2.0 5.0 0.00 0.43 0.07 75 1008.8
20260506161529 59 293 2.0 4.0 0.00 0.43 0.07 75 1008.8
20260506161052 59 304 1.0 4.0 0.00 0.43 0.07 75 1008.7
20260506160540 59 306 1.0 6.0 0.00 0.43 0.07 73 1008.7
20260506160035 59 305 2.0 6.0 0.00 0.43 0.07 73 1008.7
20260506155607 60 11 1.0 5.0 0.00 0.43 0.07 75 1008.7
20260506155106 59 313 2.0 5.0 0.00 0.43 0.07 75 1008.7
20260506154556 59 302 2.0 5.0 0.00 0.43 0.07 76 1008.7
20260506154057 60 280 2.0 6.0 0.00 0.43 0.07 73 1008.7
20260506153547 60 329 1.0 5.0 0.00 0.43 0.07 73 1008.7
20260506153041 60 291 1.0 5.0 0.00 0.43 0.07 74 1008.7
20260506152546 60 306 1.0 3.0 0.00 0.43 0.07 73 1008.6
20260506152105 60 360 1.0 6.0 0.00 0.43 0.07 72 1008.6
20260506151537 60 309 3.0 6.0 0.00 0.43 0.07 73 1008.6
20260506151037 60 287 2.0 6.0 0.00 0.43 0.07 72 1008.6
20260506150540 60 315 2.0 7.0 0.00 0.43 0.07 75 1008.6
20260506150037 60 346 1.0 4.0 0.00 0.43 0.07 73 1008.6
20260506145528 59 360 1.0 4.0 0.00 0.43 0.07 76 1008.6
20260506145028 59 330 1.0 5.0 0.00 0.43 0.07 74 1008.7
20260506144535 59 5 3.0 5.0 0.00 0.43 0.07 73 1008.7
20260506144035 59 317 1.0 8.0 0.00 0.43 0.07 75 1008.7
20260506143537 58 318 3.0 8.0 0.00 0.43 0.07 74 1008.7
20260506143041 58 348 2.0 8.0 0.00 0.43 0.07 74 1008.7
20260506142543 59 15 3.0 6.0 0.00 0.43 0.07 72 1008.7
20260506142026 58 321 2.0 5.0 0.00 0.43 0.07 73 1008.7
20260506141529 58 304 2.0 8.0 0.00 0.43 0.07 74 1008.8
20260506141035 58 22 4.0 9.0 0.00 0.43 0.07 74 1008.8
20260506140537 58 331 4.0 9.0 0.00 0.43 0.07 72 1008.8
20260506140042 59 306 4.0 9.0 0.00 0.43 0.07 75 1008.8
20260506135542 59 337 4.0 9.0 0.00 0.43 0.07 78 1008.8
20260506135031 58 344 3.0 6.0 0.00 0.43 0.07 74 1008.8
20260506134537 58 331 1.0 8.0 0.00 0.43 0.07 79 1008.8
20260506134034 58 355 2.0 8.0 0.00 0.43 0.07 79 1008.8
20260506133542 57 326 2.0 8.0 0.00 0.43 0.07 81 1008.8
20260506133042 57 324 3.0 8.0 0.00 0.43 0.07 79 1008.9
20260506132527 58 15 2.0 5.0 0.00 0.43 0.07 80 1009.0
20260506132044 57 323 1.0 4.0 0.00 0.43 0.07 82 1008.9
20260506131531 57 355 1.0 8.0 0.00 0.43 0.07 81 1009.0
20260506131027 57 343 2.0 8.0 0.00 0.43 0.07 79 1009.0
20260506130533 57 346 3.0 6.0 0.00 0.43 0.07 80 1009.0
20260506130051 57 338 4.0 6.0 0.00 0.43 0.07 81 1008.9
20260506125540 57 23 2.0 8.0 0.00 0.43 0.07 80 1009.0
20260506125041 57 17 3.0 8.0 0.00 0.43 0.07 82 1008.9
20260506124528 57 351 2.0 7.0 0.00 0.43 0.07 83 1008.9
20260506124028 56 331 2.0 8.0 0.00 0.43 0.07 83 1008.8
20260506123533 56 333 2.0 8.0 0.00 0.43 0.07 84 1008.8
20260506123033 56 345 3.0 6.0 0.00 0.43 0.07 85 1008.8
20260506122540 55 5 1.0 5.0 0.00 0.43 0.07 85 1008.8
20260506121530 55 334 2.0 6.0 0.00 0.43 0.07 85 1008.7
20260506121029 54 341 3.0 9.0 0.00 0.43 0.07 83 1008.7
20260506120532 54 323 3.0 9.0 0.00 0.43 0.07 83 1008.7
20260506120027 54 323 2.0 5.0 0.00 0.43 0.07 84 1008.8
20260506115531 54 349 2.0 9.0 0.00 0.43 0.07 84 1008.8
20260506115056 54 336 3.0 9.0 0.00 0.43 0.07 83 1008.8
20260506114528 54 355 3.0 8.0 0.00 0.43 0.07 85 1008.8
20260506114102 54 348 3.0 8.0 0.00 0.43 0.07 85 1008.8
20260506113552 54 333 3.0 8.0 0.00 0.43 0.07 85 1008.8
20260506113033 53 355 2.0 6.0 0.00 0.43 0.07 87 1008.8
20260506112541 53 339 2.0 6.0 0.00 0.43 0.07 88 1008.7
20260506112041 53 16 2.0 5.0 0.00 0.43 0.07 88 1008.8
20260506111530 53 343 1.0 5.0 0.00 0.43 0.07 89 1008.8
20260506111044 52 344 2.0 5.0 0.00 0.43 0.07 88 1008.7
20260506110542 52 355 2.0 8.0 0.00 0.43 0.07 88 1008.7
20260506110055 52 355 3.0 8.0 0.00 0.75 0.07 87 1008.7
20260506105532 52 347 2.0 6.0 0.00 0.75 0.07 88 1008.7
20260506105032 52 335 3.0 8.0 0.00 0.75 0.07 87 1008.7
20260506104540 52 16 3.0 9.0 0.00 0.75 0.07 87 1008.7
20260506104038 52 19 3.0 10.0 0.00 0.75 0.07 87 1008.7
20260506103531 52 5 4.0 10.0 0.00 0.75 0.07 89 1008.6
20260506103029 52 347 4.0 9.0 0.00 0.75 0.07 88 1008.6
20260506102541 52 335 2.0 12.0 0.00 0.75 0.07 89 1008.6
20260506102028 52 19 5.0 12.0 0.00 0.75 0.07 89 1008.6
20260506101530 52 355 8.0 12.0 0.00 0.75 0.07 88 1008.5
20260506101055 52 338 5.0 11.0 0.00 0.75 0.07 90 1008.5
20260506100539 52 17 5.0 12.0 0.00 0.75 0.07 90 1008.4
20260506100034 52 14 5.0 14.0 0.00 0.83 0.07 89 1008.4
20260506095532 52 355 9.0 14.0 0.00 0.83 0.07 88 1008.3
20260506095032 52 19 8.0 14.0 0.00 0.83 0.07 89 1008.2
20260506094537 52 22 8.0 13.0 0.00 0.83 0.07 90 1008.2
20260506094033 52 355 8.0 13.0 0.00 0.83 0.07 89 1008.1
20260506093532 52 335 7.0 14.0 0.00 0.83 0.07 89 1008.0
20260506093031 52 13 9.0 14.0 0.00 0.83 0.07 90 1008.0
20260506092601 52 355 7.0 12.0 0.00 0.83 0.07 90 1008.0
20260506092045 52 360 7.0 16.0 0.00 0.83 0.07 91 1007.9
20260506091528 51 67 11.0 16.0 0.04 0.83 0.07 91 1007.8
20260506091027 51 355 9.0 13.0 0.04 0.83 0.07 92 1007.8
20260506090534 51 344 6.0 14.0 0.04 0.83 0.07 93 1007.8
20260506090035 51 355 10.0 17.0 0.04 1.22 0.07 92 1007.7
20260506085546 51 9 9.0 17.0 0.04 1.22 0.07 93 1007.7
20260506085045 51 5 8.0 15.0 0.04 1.22 0.07 93 1007.6
20260506084534 51 13 10.0 15.0 0.04 1.22 0.07 93 1007.5
20260506084034 51 346 10.0 15.0 0.04 1.22 0.07 93 1007.6
20260506083540 51 348 9.0 14.0 0.04 1.22 0.07 93 1007.5
20260506083038 51 340 7.0 14.0 0.04 1.22 0.07 94 1007.5
20260506082530 51 10 9.0 15.0 0.04 1.22 0.07 94 1007.4
20260506082027 51 5 9.0 14.0 0.04 1.22 0.07 93 1007.5
20260506081541 51 342 7.0 13.0 0.00 1.18 0.06 94 1007.4
20260506081043 51 355 6.0 12.0 0.00 1.18 0.06 95 1007.3
20260506080528 51 22 7.0 12.0 0.00 1.18 0.06 95 1007.2